Weather in Samosdelka

Russia / Astrakhan Oblast     46°01′23″N   47°50′25″E
temp.,
°C
wind,
m/s
gust,
m/s
humid.,
%
clouds,
%
prec.,
mm/h
press.,
hPa
HPBL,
m
1 august, sun
sun101:00+24sse336286 0.0 101137
04:00+24se22669 0.0 101131
07:00+25se236037 0.0 1012101
10:00+31sse34415 0.0 1012880
13:00+31s444377 1.0 1012591
16:00+34sse453295 1.0 10101044
19:00+31sse55354 0.0 1010352
22:00+26s33550 0.0 101139
2 august, mon
mon201:00+25s225940 0.0 101111
04:00+26e224895 0.0 101121
07:00+27ene23429 0.0 101263
10:00+33ese35275 0.0 1012746
13:00+36s662198 0.0 10111630
16:00+37sse5619100 0.0 10101863
19:00+34se562698 0.0 1010414
22:00+27se345355 0.0 101145
3 august, tue
tue301:00+26sse335795 0.0 101031
04:00+26ese224939 0.0 101011
07:00+28e004022 0.0 101214
10:00+33se24255 0.0 1012672
13:00+38sse56173 0.0 10102541
16:00+38s66160 0.0 10101399
19:00+34sse56210 0.0 1010312
22:00+28s45382 0.0 101046
4 august, wed
wed401:00+27s44490 0.0 101042
04:00+26sw22560 0.0 101011
07:00+27sse22450 0.0 101141
10:00+34s33250 0.0 1011545
13:00+37s55191 0.0 10101618
16:00+38s65175 0.0 10101664
19:00+33sse67275 0.0 1010241
22:00+27nw11565 0.0 101211
5 august, thu
thu501:00+27w12502 0.0 101111
04:00+26n33411 0.0 101117
07:00+27nne354753 0.0 1011110
10:00+31n91141100 0.0 1012931
13:00+30nne7941100 0.0 1013760
16:00+29nnw56475 0.0 1013668
19:00+30nw34420 0.0 1012966
22:00+27n464868 0.0 101375